Location: Feydey
(46.3431°N, 7.0106°E)
Time: 15:25:29
(UTC+00:00)

Cosmos 2173 Rocket - Pass Details

Date: 20 June 2021
Orbit: 945 x 1000 km, 83.0° (Epoch: 02 August)

Event Time Altitude Azimuth Distance (km) Brightness Sun altitude
Rises 20:07:45 0° 354° (N) 3,733 7.9 -6.1°
Reaches altitude 10° 20:10:20 10° 358° (N) 2,782 7.1 -6.4°
Maximum altitude 20:16:39 60° 78° (ENE) 1,137 4.2 -7.2°
Drops below altitude 10° 20:22:55 10° 158° (SSE) 2,757 5.8 -8.0°
Enters shadow 20:23:37 - 159° (SSE) 3,011 6.0 -8.0°
